| time (UTC) | temp F | wind direction | speed MPH | gust MPH | rain 1hr in | rain 24hr in | rain mn in | humidity % | barometer mb |
| 20260502163045 | 58 | 218 | 2.0 | 7.0 | 0.00 | 0.00 | 0.00 | 42 | 1016.7 |
| 20260502161547 | 57 | 136 | 2.0 | 7.0 | 0.00 | 0.00 | 0.00 | 43 | 1017.0 |
| 20260502151547 | 55 | 128 | 2.0 | 6.0 | 0.00 | 0.00 | 0.00 | 43 | 1017.6 |
| 20260502123047 | 37 | 0 | 0.0 | 0.0 | 0.00 | 0.00 | 0.00 | 86 | 1018.8 |
| 20260502121544 | 33 | 0 | 0.0 | 0.0 | 0.00 | 0.00 | 0.00 | 88 | 1018.7 |
| 20260502114601 | 30 | 0 | 0.0 | 0.0 | 0.00 | 0.00 | 0.00 | 87 | 1018.6 |
| 20260502113037 | 29 | 0 | 0.0 | 0.0 | 0.00 | 0.00 | 0.00 | 86 | 1018.6 |
| 20260502111538 | 29 | 0 | 0.0 | 0.0 | 0.00 | 0.00 | 0.00 | 86 | 1018.6 |
| 20260502110046 | 29 | 0 | 0.0 | 0.0 | 0.00 | 0.00 | 0.00 | 86 | 1018.6 |
| 20260502104544 | 29 | 0 | 0.0 | 0.0 | 0.00 | 0.00 | 0.00 | 86 | 1018.6 |
| 20260502103041 | 30 | 0 | 0.0 | 0.0 | 0.00 | 0.00 | 0.00 | 85 | 1018.4 |
| 20260502101559 | 30 | 0 | 0.0 | 0.0 | 0.00 | 0.00 | 0.00 | 85 | 1018.4 |
| 20260502070046 | 33 | 0 | 0.0 | 0.0 | 0.00 | 0.00 | 0.00 | 80 | 1018.3 |
| 20260502064612 | 33 | 0 | 0.0 | 0.0 | 0.00 | 0.00 | 0.00 | 79 | 1018.4 |
| 20260502063054 | 33 | 0 | 0.0 | 0.0 | 0.00 | 0.00 | 0.00 | 79 | 1018.6 |
| 20260502061543 | 33 | 0 | 0.0 | 0.0 | 0.00 | 0.00 | 0.00 | 79 | 1018.5 |
| 20260502060045 | 34 | 0 | 0.0 | 0.0 | 0.00 | 0.00 | 0.00 | 78 | 1018.6 |
| 20260502054541 | 34 | 0 | 0.0 | 0.0 | 0.00 | 0.00 | 0.00 | 78 | 1018.5 |
| 20260502053041 | 34 | 0 | 0.0 | 0.0 | 0.00 | 0.00 | 0.00 | 77 | 1018.6 |
| 20260502051548 | 35 | 0 | 0.0 | 0.0 | 0.00 | 0.00 | 0.00 | 76 | 1018.5 |
| 20260502050047 | 35 | 0 | 0.0 | 0.0 | 0.00 | 0.00 | 0.00 | 76 | 1018.7 |
| 20260502044542 | 36 | 0 | 0.0 | 0.0 | 0.00 | 0.00 | 0.00 | 74 | 1018.6 |
| 20260502043111 | 37 | 0 | 0.0 | 0.0 | 0.00 | 0.00 | 0.00 | 74 | 1018.6 |
| 20260502041548 | 37 | 0 | 0.0 | 0.0 | 0.00 | 0.00 | 0.00 | 73 | 1018.6 |
| 20260502040042 | 37 | 0 | 0.0 | 0.0 | 0.00 | 0.00 | 0.00 | 71 | 1018.7 |
| 20260502034540 | 38 | 0 | 0.0 | 0.0 | 0.00 | 0.00 | 0.00 | 70 | 1018.6 |
| 20260502033038 | 38 | 0 | 0.0 | 0.0 | 0.00 | 0.00 | 0.00 | 66 | 1018.7 |
| 20260502031545 | 39 | 0 | 0.0 | 0.0 | 0.00 | 0.00 | 0.00 | 65 | 1018.6 |
| 20260502030048 | 40 | 0 | 0.0 | 0.0 | 0.00 | 0.00 | 0.00 | 64 | 1018.6 |
| 20260502024542 | 41 | 0 | 0.0 | 0.0 | 0.00 | 0.00 | 0.00 | 62 | 1018.6 |
| 20260502023043 | 42 | 0 | 0.0 | 0.0 | 0.00 | 0.00 | 0.00 | 59 | 1018.7 |
| 20260502021542 | 44 | 0 | 0.0 | 0.0 | 0.00 | 0.00 | 0.00 | 57 | 1018.6 |
| 20260502020040 | 45 | 0 | 0.0 | 0.0 | 0.00 | 0.00 | 0.00 | 51 | 1018.4 |
| 20260502014541 | 46 | 0 | 0.0 | 0.0 | 0.00 | 0.00 | 0.00 | 48 | 1018.2 |
| 20260502013052 | 48 | 0 | 0.0 | 0.0 | 0.00 | 0.00 | 0.00 | 45 | 1018.1 |
| 20260502011556 | 49 | 0 | 0.0 | 0.0 | 0.00 | 0.00 | 0.00 | 41 | 1018.0 |
| 20260502010044 | 50 | 0 | 0.0 | 0.0 | 0.00 | 0.00 | 0.00 | 38 | 1017.9 |
| 20260502004544 | 51 | 0 | 0.0 | 0.0 | 0.00 | 0.00 | 0.00 | 36 | 1017.9 |
| 20260502003041 | 51 | 0 | 0.0 | 2.0 | 0.00 | 0.00 | 0.00 | 36 | 1017.9 |
| 20260502001540 | 51 | 182 | 0.0 | 2.0 | 0.00 | 0.00 | 0.00 | 37 | 1018.0 |
| 20260502000046 | 51 | 0 | 0.0 | 3.0 | 0.00 | 0.00 | 0.00 | 37 | 1018.0 |
| 20260501234545 | 51 | 205 | 2.0 | 7.0 | 0.00 | 0.00 | 0.00 | 36 | 1018.0 |
| 20260501233043 | 52 | 215 | 0.0 | 3.0 | 0.00 | 0.00 | 0.00 | 36 | 1018.0 |
| 20260501231541 | 52 | 188 | 0.0 | 4.0 | 0.00 | 0.00 | 0.00 | 36 | 1018.0 |
| 20260501230040 | 52 | 0 | 0.0 | 6.0 | 0.00 | 0.00 | 0.00 | 34 | 1018.0 |
| 20260501224541 | 53 | 316 | 2.0 | 6.0 | 0.00 | 0.00 | 0.00 | 33 | 1018.0 |
| 20260501223042 | 54 | 208 | 0.0 | 8.0 | 0.00 | 0.00 | 0.00 | 35 | 1018.0 |
| 20260501221545 | 53 | 288 | 1.0 | 3.0 | 0.00 | 0.00 | 0.00 | 34 | 1018.1 |
| 20260501220046 | 52 | 306 | 1.0 | 6.0 | 0.00 | 0.00 | 0.00 | 33 | 1018.2 |
| 20260501214543 | 54 | 183 | 2.0 | 6.0 | 0.00 | 0.00 | 0.00 | 34 | 1018.1 |
| 20260501213051 | 52 | 249 | 1.0 | 10.0 | 0.00 | 0.00 | 0.00 | 38 | 1018.1 |
| 20260501211544 | 53 | 342 | 2.0 | 6.0 | 0.00 | 0.00 | 0.00 | 36 | 1018.2 |
| 20260501210038 | 53 | 207 | 1.0 | 6.0 | 0.00 | 0.00 | 0.00 | 35 | 1018.4 |
| 20260501204558 | 52 | 246 | 3.0 | 8.0 | 0.00 | 0.00 | 0.00 | 36 | 1018.4 |
| 20260501203040 | 53 | 249 | 3.0 | 8.0 | 0.00 | 0.00 | 0.00 | 36 | 1018.4 |
| 20260501201544 | 53 | 277 | 2.0 | 8.0 | 0.00 | 0.00 | 0.00 | 37 | 1018.6 |
| 20260501200038 | 54 | 264 | 4.0 | 8.0 | 0.00 | 0.00 | 0.00 | 37 | 1018.8 |
| 20260501194545 | 51 | 229 | 2.0 | 9.0 | 0.00 | 0.00 | 0.00 | 39 | 1018.8 |
| 20260501193041 | 53 | 319 | 1.0 | 5.0 | 0.00 | 0.00 | 0.00 | 36 | 1018.8 |
| 20260501191545 | 51 | 227 | 4.0 | 10.0 | 0.00 | 0.00 | 0.00 | 41 | 1018.8 |
| 20260501190045 | 51 | 49 | 2.0 | 8.0 | 0.00 | 0.00 | 0.00 | 41 | 1018.8 |
| 20260501184546 | 51 | 188 | 1.0 | 13.0 | 0.00 | 0.00 | 0.00 | 39 | 1018.8 |
| 20260501183050 | 50 | 333 | 3.0 | 10.0 | 0.00 | 0.00 | 0.00 | 39 | 1018.9 |
| 20260501181540 | 49 | 198 | 3.0 | 7.0 | 0.00 | 0.00 | 0.00 | 39 | 1018.9 |
| 20260501180040 | 49 | 0 | 2.0 | 9.0 | 0.00 | 0.00 | 0.00 | 40 | 1019.1 |